Year,Month,Day,Hour,Minute,Value (Times are PST for temperature in C)
2016,07,13,00,00,15.70
2016,07,13,00,01,15.70
2016,07,13,00,02,15.60
2016,07,13,00,03,15.60
2016,07,13,00,04,15.60
2016,07,13,00,05,15.60
2016,07,13,00,06,15.60
2016,07,13,00,07,15.50
2016,07,13,00,08,15.50
2016,07,13,00,09,15.50
2016,07,13,00,10,15.40
2016,07,13,00,11,15.40
2016,07,13,00,12,15.40
2016,07,13,00,13,15.40
2016,07,13,00,14,15.40
2016,07,13,00,15,15.40
2016,07,13,00,16,15.40
2016,07,13,00,17,15.40
2016,07,13,00,18,15.40
2016,07,13,00,19,15.40
2016,07,13,00,20,15.40
2016,07,13,00,21,15.40
2016,07,13,00,22,15.40
2016,07,13,00,23,15.40
2016,07,13,00,24,15.40
2016,07,13,00,25,15.40
2016,07,13,00,26,15.40
2016,07,13,00,27,15.40
2016,07,13,00,28,15.40
2016,07,13,00,29,15.40
2016,07,13,00,30,15.40
2016,07,13,00,31,15.40
2016,07,13,00,32,15.40
2016,07,13,00,33,15.40
2016,07,13,00,34,15.40
2016,07,13,00,35,15.40
2016,07,13,00,36,15.40
2016,07,13,00,37,15.40
2016,07,13,00,38,15.40
2016,07,13,00,39,15.30
2016,07,13,00,40,15.30
2016,07,13,00,41,15.30
2016,07,13,00,42,15.30
2016,07,13,00,43,15.30
2016,07,13,00,44,15.30
2016,07,13,00,45,15.30
2016,07,13,00,46,15.30
2016,07,13,00,47,15.30
2016,07,13,00,48,15.30
2016,07,13,00,49,15.30
2016,07,13,00,50,15.30
2016,07,13,00,51,15.30
2016,07,13,00,52,15.20
2016,07,13,00,53,15.20
2016,07,13,00,54,15.20
2016,07,13,00,55,15.20
2016,07,13,00,56,15.20
2016,07,13,00,57,15.20
2016,07,13,00,58,15.20
2016,07,13,00,59,15.20
2016,07,13,01,00,15.20
2016,07,13,01,01,15.20
2016,07,13,01,02,15.10
2016,07,13,01,03,15.10
2016,07,13,01,04,15.10
2016,07,13,01,05,15.10
2016,07,13,01,06,15.10
2016,07,13,01,07,15.10
2016,07,13,01,08,15.10
2016,07,13,01,09,15.10
2016,07,13,01,10,15.10
2016,07,13,01,11,15.10
2016,07,13,01,12,15.10
2016,07,13,01,13,15.10
2016,07,13,01,14,15.10
2016,07,13,01,15,15.10
2016,07,13,01,16,15.10
2016,07,13,01,17,15.10
2016,07,13,01,18,15.10
2016,07,13,01,19,15.00
2016,07,13,01,20,15.00
2016,07,13,01,21,15.00
2016,07,13,01,22,15.00
2016,07,13,01,23,15.00
2016,07,13,01,24,15.00
2016,07,13,01,25,15.00
2016,07,13,01,26,15.00
2016,07,13,01,27,15.00
2016,07,13,01,28,15.00
2016,07,13,01,29,15.00
2016,07,13,01,30,14.90
2016,07,13,01,31,14.90
2016,07,13,01,32,14.90
2016,07,13,01,33,14.90
2016,07,13,01,34,14.90
2016,07,13,01,35,14.90
2016,07,13,01,36,14.90
2016,07,13,01,37,14.90
2016,07,13,01,38,14.90
2016,07,13,01,39,14.90
2016,07,13,01,40,14.90
2016,07,13,01,41,14.90
2016,07,13,01,42,14.90
2016,07,13,01,43,14.90
2016,07,13,01,44,14.90
2016,07,13,01,45,14.90
2016,07,13,01,46,14.90
2016,07,13,01,47,14.90
2016,07,13,01,48,14.90
2016,07,13,01,49,14.90
2016,07,13,01,50,14.90
2016,07,13,01,51,14.90
2016,07,13,01,52,14.90
2016,07,13,01,53,14.90
2016,07,13,01,54,14.90
2016,07,13,01,55,14.90
2016,07,13,01,56,14.90
2016,07,13,01,57,14.90
2016,07,13,01,58,14.90
2016,07,13,01,59,14.90
2016,07,13,02,00,14.90
2016,07,13,02,01,14.90
2016,07,13,02,02,14.90
2016,07,13,02,03,14.90
2016,07,13,02,04,14.90
2016,07,13,02,05,14.90
2016,07,13,02,06,14.90
2016,07,13,02,07,14.90
2016,07,13,02,08,14.90
2016,07,13,02,09,14.90
2016,07,13,02,10,14.90
2016,07,13,02,11,14.90
2016,07,13,02,12,14.90
2016,07,13,02,13,14.90
2016,07,13,02,14,14.80
2016,07,13,02,15,14.80
2016,07,13,02,16,14.80
2016,07,13,02,17,14.80
2016,07,13,02,18,14.80
2016,07,13,02,19,14.80
2016,07,13,02,20,14.80
2016,07,13,02,21,14.80
2016,07,13,02,22,14.80
2016,07,13,02,23,14.80
2016,07,13,02,24,14.80
2016,07,13,02,25,14.80
2016,07,13,02,26,14.80
2016,07,13,02,27,14.80
2016,07,13,02,28,14.70
2016,07,13,02,29,14.70
2016,07,13,02,30,14.70
2016,07,13,02,31,14.70
2016,07,13,02,32,14.70
2016,07,13,02,33,14.70
2016,07,13,02,34,14.70
2016,07,13,02,35,14.60
2016,07,13,02,36,14.60
2016,07,13,02,37,14.60
2016,07,13,02,38,14.60
2016,07,13,02,39,14.50
2016,07,13,02,40,14.50
2016,07,13,02,41,14.50
2016,07,13,02,42,14.50
2016,07,13,02,43,14.40
2016,07,13,02,44,14.40
2016,07,13,02,45,14.40
2016,07,13,02,46,14.40
2016,07,13,02,47,14.30
2016,07,13,02,48,14.30
2016,07,13,02,49,14.30
2016,07,13,02,50,14.30
2016,07,13,02,51,14.20
2016,07,13,02,52,14.20
2016,07,13,02,53,14.20
2016,07,13,02,54,14.10
2016,07,13,02,55,14.10
2016,07,13,02,56,14.10
2016,07,13,02,57,14.10
2016,07,13,02,58,14.00
2016,07,13,02,59,14.00
2016,07,13,03,00,14.00
2016,07,13,03,01,14.00
2016,07,13,03,02,13.90
2016,07,13,03,03,13.90
2016,07,13,03,04,13.90
2016,07,13,03,05,13.90
2016,07,13,03,06,13.90
2016,07,13,03,07,13.90
2016,07,13,03,08,13.90
2016,07,13,03,09,13.80
2016,07,13,03,10,13.80
2016,07,13,03,11,13.80
2016,07,13,03,12,13.80
2016,07,13,03,13,13.80
2016,07,13,03,14,13.70
2016,07,13,03,15,13.70
2016,07,13,03,16,13.70
2016,07,13,03,17,13.70
2016,07,13,03,18,13.60
2016,07,13,03,19,13.60
2016,07,13,03,20,13.60
2016,07,13,03,21,13.60
2016,07,13,03,22,13.50
2016,07,13,03,23,13.50
2016,07,13,03,24,13.50
2016,07,13,03,25,13.50
2016,07,13,03,26,13.50
2016,07,13,03,27,13.40
2016,07,13,03,28,13.40
2016,07,13,03,29,13.40
2016,07,13,03,30,13.30
2016,07,13,03,31,13.30
2016,07,13,03,32,13.30
2016,07,13,03,33,13.30
2016,07,13,03,34,13.30
2016,07,13,03,35,13.30
2016,07,13,03,36,13.30
2016,07,13,03,37,13.20
2016,07,13,03,38,13.20
2016,07,13,03,39,13.20
2016,07,13,03,40,13.20
2016,07,13,03,41,13.20
2016,07,13,03,42,13.20
2016,07,13,03,43,13.20
2016,07,13,03,44,13.20
2016,07,13,03,45,13.20
2016,07,13,03,46,13.20
2016,07,13,03,47,13.20
2016,07,13,03,48,13.20
2016,07,13,03,49,13.10
2016,07,13,03,50,13.10
2016,07,13,03,51,13.10
2016,07,13,03,52,13.10
2016,07,13,03,53,13.10
2016,07,13,03,54,13.00
2016,07,13,03,55,13.00
2016,07,13,03,56,13.00
2016,07,13,03,57,13.00
2016,07,13,03,58,13.00
2016,07,13,03,59,12.90
2016,07,13,04,00,12.90
2016,07,13,04,01,12.90
2016,07,13,04,02,12.90
2016,07,13,04,03,12.90
2016,07,13,04,04,12.90
2016,07,13,04,05,12.90
2016,07,13,04,06,12.90
2016,07,13,04,07,12.90
2016,07,13,04,08,12.90
2016,07,13,04,09,12.90
2016,07,13,04,10,12.80
2016,07,13,04,11,12.80
2016,07,13,04,12,12.80
2016,07,13,04,13,12.80
2016,07,13,04,14,12.80
2016,07,13,04,15,12.80
2016,07,13,04,16,12.70
2016,07,13,04,17,12.70
2016,07,13,04,18,12.70
2016,07,13,04,19,12.70
2016,07,13,04,20,12.60
2016,07,13,04,21,12.60
2016,07,13,04,22,12.60
2016,07,13,04,23,12.60
2016,07,13,04,24,12.50
2016,07,13,04,25,12.50
2016,07,13,04,26,12.50
2016,07,13,04,27,12.40
2016,07,13,04,28,12.40
2016,07,13,04,29,12.40
2016,07,13,04,30,12.40
2016,07,13,04,31,12.30
2016,07,13,04,32,12.30
2016,07,13,04,33,12.30
2016,07,13,04,34,12.30
2016,07,13,04,35,12.30
2016,07,13,04,36,12.30
2016,07,13,04,37,12.30
2016,07,13,04,38,12.30
2016,07,13,04,39,12.30
2016,07,13,04,40,12.30
2016,07,13,04,41,12.20
2016,07,13,04,42,12.20
2016,07,13,04,43,12.20
2016,07,13,04,44,12.20
2016,07,13,04,45,12.20
2016,07,13,04,46,12.20
2016,07,13,04,47,12.20
2016,07,13,04,48,12.20
2016,07,13,04,49,12.20
2016,07,13,04,50,12.20
2016,07,13,04,51,12.20
2016,07,13,04,52,12.10
2016,07,13,04,53,12.10
2016,07,13,04,54,12.10
2016,07,13,04,55,12.10
2016,07,13,04,56,12.00
2016,07,13,04,57,12.00
2016,07,13,04,58,12.00
2016,07,13,04,59,11.90
2016,07,13,05,00,11.90
2016,07,13,05,01,11.90
2016,07,13,05,02,11.90
2016,07,13,05,03,11.90
2016,07,13,05,04,11.90
2016,07,13,05,05,11.90
2016,07,13,05,06,11.90
2016,07,13,05,07,11.90
2016,07,13,05,08,11.90
2016,07,13,05,09,11.90
2016,07,13,05,10,11.90
2016,07,13,05,11,11.90
2016,07,13,05,12,11.80
2016,07,13,05,13,11.80
2016,07,13,05,14,11.80
2016,07,13,05,15,11.80
2016,07,13,05,16,11.80
2016,07,13,05,17,11.80
2016,07,13,05,18,11.80
2016,07,13,05,19,11.70
2016,07,13,05,20,11.70
2016,07,13,05,21,11.70
2016,07,13,05,22,11.70
2016,07,13,05,23,11.70
2016,07,13,05,24,11.70
2016,07,13,05,25,11.70
2016,07,13,05,26,11.70
2016,07,13,05,27,11.60
2016,07,13,05,28,11.60
2016,07,13,05,29,11.60
2016,07,13,05,30,11.60
2016,07,13,05,31,11.60
2016,07,13,05,32,11.60
2016,07,13,05,33,11.60
2016,07,13,05,34,11.60
2016,07,13,05,35,11.60
2016,07,13,05,36,11.60
2016,07,13,05,37,11.60
2016,07,13,05,38,11.60
2016,07,13,05,39,11.60
2016,07,13,05,40,11.60
2016,07,13,05,41,11.60
2016,07,13,05,42,11.50
2016,07,13,05,43,11.50
2016,07,13,05,44,11.50
2016,07,13,05,45,11.50
2016,07,13,05,46,11.40
2016,07,13,05,47,11.40
2016,07,13,05,48,11.40
2016,07,13,05,49,11.40
2016,07,13,05,50,11.40
2016,07,13,05,51,11.40
2016,07,13,05,52,11.40
2016,07,13,05,53,11.40
2016,07,13,05,54,11.40
2016,07,13,05,55,11.40
2016,07,13,05,56,11.40
2016,07,13,05,57,11.40
2016,07,13,05,58,11.40
2016,07,13,05,59,11.30
2016,07,13,06,00,11.30
2016,07,13,06,01,11.30
2016,07,13,06,02,11.30
2016,07,13,06,03,11.30
2016,07,13,06,04,11.20
2016,07,13,06,05,11.20
2016,07,13,06,06,11.20
2016,07,13,06,07,11.20
2016,07,13,06,08,11.20
2016,07,13,06,09,11.20
2016,07,13,06,10,11.20
2016,07,13,06,11,11.20
2016,07,13,06,12,11.20
2016,07,13,06,13,11.20
2016,07,13,06,14,11.20
2016,07,13,06,15,11.20
2016,07,13,06,16,11.10
2016,07,13,06,17,11.10
2016,07,13,06,18,11.10
2016,07,13,06,19,11.10
2016,07,13,06,20,11.10
2016,07,13,06,21,11.10
2016,07,13,06,22,11.10
2016,07,13,06,23,11.10
2016,07,13,06,24,11.10
2016,07,13,06,25,11.10
2016,07,13,06,26,11.10
2016,07,13,06,27,11.10
2016,07,13,06,28,11.10
2016,07,13,06,29,11.10
2016,07,13,06,30,11.10
2016,07,13,06,31,11.10
2016,07,13,06,32,11.10
2016,07,13,06,33,11.10
2016,07,13,06,34,11.10
2016,07,13,06,35,11.10
2016,07,13,06,36,11.10
2016,07,13,06,37,11.10
2016,07,13,06,38,11.10
2016,07,13,06,39,11.20
2016,07,13,06,40,11.20
2016,07,13,06,41,11.20
2016,07,13,06,42,11.20
2016,07,13,06,43,11.30
2016,07,13,06,44,11.30
2016,07,13,06,45,11.30
2016,07,13,06,46,11.30
2016,07,13,06,47,11.40
2016,07,13,06,48,11.40
2016,07,13,06,49,11.40
2016,07,13,06,50,11.40
2016,07,13,06,51,11.40
2016,07,13,06,52,11.40
2016,07,13,06,53,11.40
2016,07,13,06,54,11.40
2016,07,13,06,55,11.40
2016,07,13,06,56,11.40
2016,07,13,06,57,11.40
2016,07,13,06,58,11.40
2016,07,13,06,59,11.40
2016,07,13,07,00,11.50
2016,07,13,07,01,11.50
2016,07,13,07,02,11.50
2016,07,13,07,03,11.50
2016,07,13,07,04,11.60
2016,07,13,07,05,11.60
2016,07,13,07,06,11.70
2016,07,13,07,07,11.70
2016,07,13,07,08,11.80
2016,07,13,07,09,11.80
2016,07,13,07,10,11.80
2016,07,13,07,11,11.80
2016,07,13,07,12,11.90
2016,07,13,07,13,11.90
2016,07,13,07,14,11.90
2016,07,13,07,15,12.00
2016,07,13,07,16,12.00
2016,07,13,07,17,12.10
2016,07,13,07,18,12.10
2016,07,13,07,19,12.20
2016,07,13,07,20,12.30
2016,07,13,07,21,12.40
2016,07,13,07,22,12.40
2016,07,13,07,23,12.50
2016,07,13,07,24,12.60
2016,07,13,07,25,12.70
2016,07,13,07,26,12.80
2016,07,13,07,27,12.80
2016,07,13,07,28,12.90
2016,07,13,07,29,13.00
2016,07,13,07,30,13.10
2016,07,13,07,31,13.20
2016,07,13,07,32,13.30
2016,07,13,07,33,13.40
2016,07,13,07,34,13.50
2016,07,13,07,35,13.60
2016,07,13,07,36,13.70
2016,07,13,07,37,13.90
2016,07,13,07,38,14.00
2016,07,13,07,39,14.10
2016,07,13,07,40,14.30
2016,07,13,07,41,14.40
2016,07,13,07,42,14.50
2016,07,13,07,43,14.60
2016,07,13,07,44,14.70
2016,07,13,07,45,14.80
2016,07,13,07,46,15.00
2016,07,13,07,47,15.10
2016,07,13,07,48,15.20
2016,07,13,07,49,15.30
2016,07,13,07,50,15.40
2016,07,13,07,51,15.40
2016,07,13,07,52,15.50
2016,07,13,07,53,15.60
2016,07,13,07,54,15.70
2016,07,13,07,55,15.80
2016,07,13,07,56,15.80
2016,07,13,07,57,15.90
2016,07,13,07,58,16.00
2016,07,13,07,59,16.10
2016,07,13,08,00,16.20
2016,07,13,08,01,16.20
2016,07,13,08,02,16.30
2016,07,13,08,03,16.40
2016,07,13,08,04,16.40
2016,07,13,08,05,16.40
2016,07,13,08,06,16.50
2016,07,13,08,07,16.50
2016,07,13,08,08,16.60
2016,07,13,08,09,16.60
2016,07,13,08,10,16.70
2016,07,13,08,11,16.70
2016,07,13,08,12,16.80
2016,07,13,08,13,16.90
2016,07,13,08,14,16.90
2016,07,13,08,15,17.00
2016,07,13,08,16,17.00
2016,07,13,08,17,17.10
2016,07,13,08,18,17.10
2016,07,13,08,19,17.10
2016,07,13,08,20,17.20
2016,07,13,08,21,17.20
2016,07,13,08,22,17.20
2016,07,13,08,23,17.20
2016,07,13,08,24,17.20
2016,07,13,08,25,17.20
2016,07,13,08,26,17.20
2016,07,13,08,27,17.20
2016,07,13,08,28,17.20
2016,07,13,08,29,17.30
2016,07,13,08,30,17.30
2016,07,13,08,31,17.40
2016,07,13,08,32,17.40
2016,07,13,08,33,17.40
2016,07,13,08,34,17.40
2016,07,13,08,35,17.40
2016,07,13,08,36,17.40
2016,07,13,08,37,17.40
2016,07,13,08,38,17.40
2016,07,13,08,39,17.40
2016,07,13,08,40,17.40
2016,07,13,08,41,17.40
2016,07,13,08,42,17.40
2016,07,13,08,43,17.30
2016,07,13,08,44,17.30
2016,07,13,08,45,17.30
2016,07,13,08,46,17.30
2016,07,13,08,47,17.20
2016,07,13,08,48,17.30
2016,07,13,08,49,17.30
2016,07,13,08,50,17.30
2016,07,13,08,51,17.40
2016,07,13,08,52,17.50
2016,07,13,08,53,17.60
2016,07,13,08,54,17.70
2016,07,13,08,55,17.70
2016,07,13,08,56,17.80
2016,07,13,08,57,17.80
2016,07,13,08,58,17.80
2016,07,13,08,59,17.90
2016,07,13,09,00,17.90
2016,07,13,09,01,17.90
2016,07,13,09,02,17.90
2016,07,13,09,03,17.90
2016,07,13,09,04,17.90
2016,07,13,09,05,18.00
2016,07,13,09,06,18.00
2016,07,13,09,07,18.00
2016,07,13,09,08,18.00
2016,07,13,09,09,18.00
2016,07,13,09,10,18.00
2016,07,13,09,11,18.00
2016,07,13,09,12,18.00
2016,07,13,09,13,17.90
2016,07,13,09,14,17.90
2016,07,13,09,15,17.90
2016,07,13,09,16,17.80
2016,07,13,09,17,17.70
2016,07,13,09,18,17.70
2016,07,13,09,19,17.70
2016,07,13,09,20,17.70
2016,07,13,09,21,17.70
2016,07,13,09,22,17.70
2016,07,13,09,23,17.70
2016,07,13,09,24,17.60
2016,07,13,09,25,17.60
2016,07,13,09,26,17.60
2016,07,13,09,27,17.60
2016,07,13,09,28,17.60
2016,07,13,09,29,17.70
2016,07,13,09,30,17.70
2016,07,13,09,31,17.80
2016,07,13,09,32,17.80
2016,07,13,09,33,17.90
2016,07,13,09,34,17.90
2016,07,13,09,35,18.00
2016,07,13,09,36,18.10
2016,07,13,09,37,18.10
2016,07,13,09,38,18.10
2016,07,13,09,39,18.10
2016,07,13,09,40,18.10
2016,07,13,09,41,18.10
2016,07,13,09,42,18.10
2016,07,13,09,43,18.10
2016,07,13,09,44,18.10
2016,07,13,09,45,18.20
2016,07,13,09,46,18.20
2016,07,13,09,47,18.20
2016,07,13,09,48,18.30
2016,07,13,09,49,18.40
2016,07,13,09,50,18.40
2016,07,13,09,51,18.40
2016,07,13,09,52,18.40
2016,07,13,09,53,18.40
2016,07,13,09,54,18.40
2016,07,13,09,55,18.50
2016,07,13,09,56,18.50
2016,07,13,09,57,18.50
2016,07,13,09,58,18.60
2016,07,13,09,59,18.70
2016,07,13,10,00,18.90
2016,07,13,10,01,19.00
2016,07,13,10,02,19.10
2016,07,13,10,03,19.20
2016,07,13,10,04,19.20
2016,07,13,10,05,19.30
2016,07,13,10,06,19.40
2016,07,13,10,07,19.50
2016,07,13,10,08,19.50
2016,07,13,10,09,19.60
2016,07,13,10,10,19.60
2016,07,13,10,11,19.60
2016,07,13,10,12,19.50
2016,07,13,10,13,19.40
2016,07,13,10,14,19.40
2016,07,13,10,15,19.30
2016,07,13,10,16,19.30
2016,07,13,10,17,19.30
2016,07,13,10,18,19.40
2016,07,13,10,19,19.40
2016,07,13,10,20,19.50
2016,07,13,10,21,19.70
2016,07,13,10,22,19.70
2016,07,13,10,23,19.80
2016,07,13,10,24,19.90
2016,07,13,10,25,20.00
2016,07,13,10,26,19.90
2016,07,13,10,27,19.80
2016,07,13,10,28,19.70
2016,07,13,10,29,19.60
2016,07,13,10,30,19.50
2016,07,13,10,31,19.40
2016,07,13,10,32,19.40
2016,07,13,10,33,19.30
2016,07,13,10,34,19.30
2016,07,13,10,35,19.40
2016,07,13,10,36,19.40
2016,07,13,10,37,19.50
2016,07,13,10,38,19.60
2016,07,13,10,39,19.70
2016,07,13,10,40,19.70
2016,07,13,10,41,19.80
2016,07,13,10,42,19.70
2016,07,13,10,43,19.70
2016,07,13,10,44,19.70
2016,07,13,10,45,19.80
2016,07,13,10,46,19.90
2016,07,13,10,47,19.90
2016,07,13,10,48,19.90
2016,07,13,10,49,19.90
2016,07,13,10,50,19.90
2016,07,13,10,51,19.90
2016,07,13,10,52,19.90
2016,07,13,10,53,19.90
2016,07,13,10,54,19.80
2016,07,13,10,55,19.80
2016,07,13,10,56,19.70
2016,07,13,10,57,19.70
2016,07,13,10,58,19.70
2016,07,13,10,59,19.70
2016,07,13,11,00,19.70
2016,07,13,11,01,19.60
2016,07,13,11,02,19.60
2016,07,13,11,03,19.50
2016,07,13,11,04,19.60
2016,07,13,11,05,19.60
2016,07,13,11,06,19.60
2016,07,13,11,07,19.60
2016,07,13,11,08,19.50
2016,07,13,11,09,19.40
2016,07,13,11,10,19.30
2016,07,13,11,11,19.30
2016,07,13,11,12,19.40
2016,07,13,11,13,19.40
2016,07,13,11,14,19.40
2016,07,13,11,15,19.40
2016,07,13,11,16,19.40
2016,07,13,11,17,19.50
2016,07,13,11,18,19.60
2016,07,13,11,19,19.70
2016,07,13,11,20,19.70
2016,07,13,11,21,19.80
2016,07,13,11,22,19.80
2016,07,13,11,23,19.80
2016,07,13,11,24,19.80
2016,07,13,11,25,19.80
2016,07,13,11,26,19.80
2016,07,13,11,27,19.90
2016,07,13,11,28,20.00
2016,07,13,11,29,20.10
2016,07,13,11,30,20.10
2016,07,13,11,31,20.20
2016,07,13,11,32,20.20
2016,07,13,11,33,20.30
2016,07,13,11,34,20.30
2016,07,13,11,35,20.30
2016,07,13,11,36,20.30
2016,07,13,11,37,20.30
2016,07,13,11,38,20.20
2016,07,13,11,39,20.10
2016,07,13,11,40,20.10
2016,07,13,11,41,20.10
2016,07,13,11,42,20.10
2016,07,13,11,43,20.20
2016,07,13,11,44,20.30
2016,07,13,11,45,20.20
2016,07,13,11,46,20.20
2016,07,13,11,47,20.20
2016,07,13,11,48,20.20
2016,07,13,11,49,20.30
2016,07,13,11,50,20.20
2016,07,13,11,51,20.20
2016,07,13,11,52,20.20
2016,07,13,11,53,20.20
2016,07,13,11,54,20.30
2016,07,13,11,55,20.30
2016,07,13,11,56,20.40
2016,07,13,11,57,20.40
2016,07,13,11,58,20.40
2016,07,13,11,59,20.30
2016,07,13,12,00,20.10
2016,07,13,12,01,20.00
2016,07,13,12,02,19.90
2016,07,13,12,03,19.90
2016,07,13,12,04,19.80
2016,07,13,12,05,19.90
2016,07,13,12,06,19.90
2016,07,13,12,07,20.00
2016,07,13,12,08,19.90
2016,07,13,12,09,19.90
2016,07,13,12,10,19.80
2016,07,13,12,11,19.70
2016,07,13,12,12,19.60
2016,07,13,12,13,19.60
2016,07,13,12,14,19.60
2016,07,13,12,15,19.60
2016,07,13,12,16,19.60
2016,07,13,12,17,19.60
2016,07,13,12,18,19.60
2016,07,13,12,19,19.60
2016,07,13,12,20,19.60
2016,07,13,12,21,19.60
2016,07,13,12,22,19.60
2016,07,13,12,23,19.70
2016,07,13,12,24,19.70
2016,07,13,12,25,19.80
2016,07,13,12,26,19.80
2016,07,13,12,27,19.80
2016,07,13,12,28,19.80
2016,07,13,12,29,19.90
2016,07,13,12,30,19.90
2016,07,13,12,31,19.90
2016,07,13,12,32,19.90
2016,07,13,12,33,20.00
2016,07,13,12,34,20.10
2016,07,13,12,35,20.20
2016,07,13,12,36,20.20
2016,07,13,12,37,20.20
2016,07,13,12,38,20.20
2016,07,13,12,39,20.10
2016,07,13,12,40,19.90
2016,07,13,12,41,19.80
2016,07,13,12,42,19.80
2016,07,13,12,43,19.80
2016,07,13,12,44,19.70
2016,07,13,12,45,19.70
2016,07,13,12,46,19.70
2016,07,13,12,47,19.70
2016,07,13,12,48,19.60
2016,07,13,12,49,19.60
2016,07,13,12,50,19.60
2016,07,13,12,51,19.60
2016,07,13,12,52,19.60
2016,07,13,12,53,19.60
2016,07,13,12,54,19.70
2016,07,13,12,55,19.80
2016,07,13,12,56,19.90
2016,07,13,12,57,19.90
2016,07,13,12,58,19.90
2016,07,13,12,59,19.90
2016,07,13,13,00,19.90
2016,07,13,13,01,19.90
2016,07,13,13,02,19.80
2016,07,13,13,03,19.80
2016,07,13,13,04,19.80
2016,07,13,13,05,19.80
2016,07,13,13,06,19.80
2016,07,13,13,07,19.80
2016,07,13,13,08,19.90
2016,07,13,13,09,19.90
2016,07,13,13,10,20.00
2016,07,13,13,11,20.00
2016,07,13,13,12,20.10
2016,07,13,13,13,20.10
2016,07,13,13,14,20.20
2016,07,13,13,15,20.20
2016,07,13,13,16,20.20
2016,07,13,13,17,20.20
2016,07,13,13,18,20.20
2016,07,13,13,19,20.20
2016,07,13,13,20,20.10
2016,07,13,13,21,20.10
2016,07,13,13,22,20.10
2016,07,13,13,23,20.10
2016,07,13,13,24,20.10
2016,07,13,13,25,20.20
2016,07,13,13,26,20.20
2016,07,13,13,27,20.20
2016,07,13,13,28,20.30
2016,07,13,13,29,20.30
2016,07,13,13,30,20.30
2016,07,13,13,31,20.40
2016,07,13,13,32,20.40
2016,07,13,13,33,20.50
2016,07,13,13,34,20.60
2016,07,13,13,35,20.80
2016,07,13,13,36,20.90
2016,07,13,13,37,21.00
2016,07,13,13,38,21.10
2016,07,13,13,39,21.20
2016,07,13,13,40,21.30
2016,07,13,13,41,21.30
2016,07,13,13,42,21.30
2016,07,13,13,43,21.30
2016,07,13,13,44,21.20
2016,07,13,13,45,21.10
2016,07,13,13,46,21.00
2016,07,13,13,47,20.90
2016,07,13,13,48,20.80
2016,07,13,13,49,20.80
2016,07,13,13,50,20.80
2016,07,13,13,51,20.80
2016,07,13,13,52,20.80
2016,07,13,13,53,20.70
2016,07,13,13,54,20.70
2016,07,13,13,55,20.50
2016,07,13,13,56,20.50
2016,07,13,13,57,20.40
2016,07,13,13,58,20.30
2016,07,13,13,59,20.20
2016,07,13,14,00,20.20
2016,07,13,14,01,20.20
2016,07,13,14,02,20.20
2016,07,13,14,03,20.30
2016,07,13,14,04,20.40
2016,07,13,14,05,20.50
2016,07,13,14,06,20.60
2016,07,13,14,07,20.70
2016,07,13,14,08,20.70
2016,07,13,14,09,20.70
2016,07,13,14,10,20.80
2016,07,13,14,11,20.80
2016,07,13,14,12,20.80
2016,07,13,14,13,20.90
2016,07,13,14,14,20.90
2016,07,13,14,15,20.90
2016,07,13,14,16,20.90
2016,07,13,14,17,20.80
2016,07,13,14,18,20.80
2016,07,13,14,19,20.70
2016,07,13,14,20,20.70
2016,07,13,14,21,20.70
2016,07,13,14,22,20.80
2016,07,13,14,23,20.80
2016,07,13,14,24,20.80
2016,07,13,14,25,20.90
2016,07,13,14,26,21.00
2016,07,13,14,27,21.00
2016,07,13,14,28,21.00
2016,07,13,14,29,21.00
2016,07,13,14,30,21.10
2016,07,13,14,31,21.10
2016,07,13,14,32,21.00
2016,07,13,14,33,21.00
2016,07,13,14,34,21.00
2016,07,13,14,35,21.00
2016,07,13,14,36,21.10
2016,07,13,14,37,21.10
2016,07,13,14,38,21.20
2016,07,13,14,39,21.20
2016,07,13,14,40,21.30
2016,07,13,14,41,21.30
2016,07,13,14,42,21.30
2016,07,13,14,43,21.40
2016,07,13,14,44,21.50
2016,07,13,14,45,21.50
2016,07,13,14,46,21.60
2016,07,13,14,47,21.60
2016,07,13,14,48,21.60
2016,07,13,14,49,21.60
2016,07,13,14,50,21.60
2016,07,13,14,51,21.60
2016,07,13,14,52,21.60
2016,07,13,14,53,21.70
2016,07,13,14,54,21.70
2016,07,13,14,55,21.60
2016,07,13,14,56,21.60
2016,07,13,14,57,21.60
2016,07,13,14,58,21.50
2016,07,13,14,59,21.50
2016,07,13,15,00,21.40
2016,07,13,15,01,21.30
2016,07,13,15,02,21.20
2016,07,13,15,03,21.10
2016,07,13,15,04,21.00
2016,07,13,15,05,21.00
2016,07,13,15,06,21.00
2016,07,13,15,07,21.00
2016,07,13,15,08,21.00
2016,07,13,15,09,21.00
2016,07,13,15,10,21.10
2016,07,13,15,11,21.20
2016,07,13,15,12,21.20
2016,07,13,15,13,21.20
2016,07,13,15,14,21.20
2016,07,13,15,15,21.10
2016,07,13,15,16,21.10
2016,07,13,15,17,21.00
2016,07,13,15,18,21.00
2016,07,13,15,19,20.90
2016,07,13,15,20,20.80
2016,07,13,15,21,20.70
2016,07,13,15,22,20.70
2016,07,13,15,23,20.70
2016,07,13,15,24,20.70
2016,07,13,15,25,20.70
2016,07,13,15,26,20.70
2016,07,13,15,27,20.70
2016,07,13,15,28,20.70
2016,07,13,15,29,20.70
2016,07,13,15,30,20.60
2016,07,13,15,31,20.50
2016,07,13,15,32,20.50
2016,07,13,15,33,20.40
2016,07,13,15,34,20.50
2016,07,13,15,35,20.60
2016,07,13,15,36,20.60
2016,07,13,15,37,20.70
2016,07,13,15,38,20.90
2016,07,13,15,39,21.00
2016,07,13,15,40,21.10
2016,07,13,15,41,21.10
2016,07,13,15,42,21.20
2016,07,13,15,43,21.20
2016,07,13,15,44,21.20
2016,07,13,15,45,21.20
2016,07,13,15,46,21.20
2016,07,13,15,47,21.20
2016,07,13,15,48,21.10
2016,07,13,15,49,21.00
2016,07,13,15,50,20.80
2016,07,13,15,51,20.70
2016,07,13,15,52,20.50
2016,07,13,15,53,20.40
2016,07,13,15,54,20.30
2016,07,13,15,55,20.30
2016,07,13,15,56,20.20
2016,07,13,15,57,20.20
2016,07,13,15,58,20.20
2016,07,13,15,59,20.20
2016,07,13,16,00,20.20
2016,07,13,16,01,20.20
2016,07,13,16,02,20.20
2016,07,13,16,03,20.20
2016,07,13,16,04,20.20
2016,07,13,16,05,20.30
2016,07,13,16,06,20.30
2016,07,13,16,07,20.30
2016,07,13,16,08,20.30
2016,07,13,16,09,20.40
2016,07,13,16,10,20.40
2016,07,13,16,11,20.50
2016,07,13,16,12,20.50
2016,07,13,16,13,20.60
2016,07,13,16,14,20.60
2016,07,13,16,15,20.80
2016,07,13,16,16,20.90
2016,07,13,16,17,21.00
2016,07,13,16,18,21.10
2016,07,13,16,19,21.20
2016,07,13,16,20,21.30
2016,07,13,16,21,21.50
2016,07,13,16,22,21.60
2016,07,13,16,23,21.70
2016,07,13,16,24,21.70
2016,07,13,16,25,21.70
2016,07,13,16,26,21.70
2016,07,13,16,27,21.60
2016,07,13,16,28,21.60
2016,07,13,16,29,21.60
2016,07,13,16,30,21.60
2016,07,13,16,31,21.60
2016,07,13,16,32,21.60
2016,07,13,16,33,21.70
2016,07,13,16,34,21.70
2016,07,13,16,35,21.70
2016,07,13,16,36,21.70
2016,07,13,16,37,21.60
2016,07,13,16,38,21.50
2016,07,13,16,39,21.50
2016,07,13,16,40,21.40
2016,07,13,16,41,21.40
2016,07,13,16,42,21.30
2016,07,13,16,43,21.30
2016,07,13,16,44,21.30
2016,07,13,16,45,21.30
2016,07,13,16,46,21.30
2016,07,13,16,47,21.40
2016,07,13,16,48,21.40
2016,07,13,16,49,21.40
2016,07,13,16,50,21.50
2016,07,13,16,51,21.50
2016,07,13,16,52,21.40
2016,07,13,16,53,21.40
2016,07,13,16,54,21.40
2016,07,13,16,55,21.40
2016,07,13,16,56,21.50
2016,07,13,16,57,21.50
2016,07,13,16,58,21.60
2016,07,13,16,59,21.60
2016,07,13,17,00,21.70
2016,07,13,17,01,21.80
2016,07,13,17,02,21.90
2016,07,13,17,03,22.00
2016,07,13,17,04,22.00
2016,07,13,17,05,22.00
2016,07,13,17,06,21.90
2016,07,13,17,07,21.90
2016,07,13,17,08,21.90
2016,07,13,17,09,21.80
2016,07,13,17,10,21.80
2016,07,13,17,11,21.70
2016,07,13,17,12,21.70
2016,07,13,17,13,21.60
2016,07,13,17,14,21.60
2016,07,13,17,15,21.50
2016,07,13,17,16,21.50
2016,07,13,17,17,21.50
2016,07,13,17,18,21.50
2016,07,13,17,19,21.50